This is the latest recevied weather packets stored in our database for station/object CYWG. If no packets are shown the sender has not sent any weather packets the latest 1 day(s).
| Time | Temp. | Humidity | Pressure | Rain* | Wind** | Luminosity | Snow |
|---|---|---|---|---|---|---|---|
| 1778090725 | 3.89° C | 48% | 1015.6 hPa | - | - | - | - |
| 1778089401 | 3.89° C | 48% | 1015.6 hPa | - | - | - | - |
| 1778088804 | 3.89° C | 48% | 1015.6 hPa | - | - | - | - |
| 1778087604 | 3.89° C | 48% | 1015.6 hPa | - | - | - | - |
| 1778084603 | 2.78° C | 51% | 1016.3 hPa | - | - | - | - |
| 1778084003 | 2.78° C | 51% | 1016.3 hPa | - | - | - | - |
| 1778082201 | 0.56° C | 74% | 1016.3 hPa | - | - | - | - |
| 1778081602 | 0.56° C | 74% | 1016.3 hPa | - | - | - | - |
| 1778081003 | 0.56° C | 74% | 1016.3 hPa | - | - | - | - |
| 1778080402 | 0.56° C | 74% | 1016.3 hPa | - | - | - | - |
| 1778079803 | -1.11° C | 86% | 1016.6 hPa | - | - | - | - |
| 1778078002 | -1.11° C | 86% | 1016.6 hPa | - | - | - | - |
| 1778075600 | -1.11° C | 86% | 1016.3 hPa | - | - | - | - |
| 1778074999 | -1.11° C | 86% | 1016.3 hPa | - | - | - | - |
| 1778070799 | -1.11° C | 86% | 1016.3 hPa | - | - | - | - |
| 1778069600 | -1.11° C | 86% | 1015.9 hPa | - | - | - | - |
| 1778067800 | -1.11° C | 80% | 1015.6 hPa | - | - | - | - |
| 1778066002 | -1.11° C | 80% | 1015.6 hPa | - | - | - | - |
| 1778065399 | -1.11° C | 80% | 1015.6 hPa | - | - | - | - |
| 1778063600 | -1.11° C | 86% | 1015.6 hPa | - | - | - | - |
| 1778063002 | -1.11° C | 86% | 1015.6 hPa | - | - | - | - |
| 1778061801 | -1.11° C | 86% | 1015.6 hPa | - | - | - | - |
| 1778060725 | -1.11° C | 86% | 1015.6 hPa | - | - | - | - |
| 1778059400 | -1.11° C | 86% | 1015.6 hPa | - | - | - | - |
| 1778058203 | -1.11° C | 80% | 1015.6 hPa | - | - | - | - |
* Rain since midnight (hover to see other rain measurements)
** Current wind speed in m/s (hover to see current wind gust speed)